No identification:

 

2003 RS1                                                                    

Epoch 2003 June 10.0 TT = JDT 2452800.5                 MPC      

M 342.71655              (2000.0)            P               Q

n   0.21234832     Peri.  161.56505     +0.91196384     +0.41024855

a   2.7825106      Node   174.20916     -0.38151861     +0.85181915

e   0.6260848      Incl.    2.41546     -0.15088242     +0.32573036

P   4.64           H   21.7           G   0.15           U   7

Residuals in seconds of arc 

030901 704  0.4-  0.4-    030903 636  0.5+  0.4+    030904 379  1.5-  0.2-  

030901 704  0.3-  0.1-    030903 620 (2.2-  0.5-)   030904 379  0.2-  0.9-  

030901 704  1.0+  1.2-    030903 620  1.0-  0.1-    030904 196  1.2+  0.7+  

030903 704  0.8-  0.0     030903 620  1.3-  0.1-    030904 480  1.1+  0.3-  

030903 704  0.7-  0.1-    030903 151  1.7+  0.0     030904 196  1.0+  0.1+  

030903 704  0.5-  0.5-    030903 151  1.4+  0.2+    030904 J95  0.0   0.3-  

030903 J95  0.4-  0.1+    030903 151  1.3+  0.1-    030904 J95  0.4-  0.2-  

030903 J95  0.0   0.1-    030903 151  1.1+  0.0     030904 196  0.5+  0.3+  

030903 J95  1.1-  0.2-    030903 151  1.1+  0.0     030904 J95  0.2-  0.4-  

030903 118 (2.0+  0.9+)   030903 151  1.0+  0.0     030904 196  0.0   0.4+  

030903 118  0.0   0.6+    030903 151  1.2+  0.1+    030904 196  0.8+  0.1+  

030903 118  0.2-  0.4+    030903 151  1.4+  0.2-    030904 196  1.2+  0.4+  

030903 J95  0.5-  0.1-    030903 151  1.6+  0.0     030904 196  0.3+  0.1+  

030903 118  0.2-  0.5+    030903 151  0.8+  0.0     030904 196  0.4+  0.3+  

030903 J95  0.5-  0.3-    030903 151  1.2+  0.1-    030905 379  0.1-  0.0   

030903 J95  0.5-  0.2-    030903 151  1.3+  0.0     030905 379  0.4+  0.6-  

030903 118  0.2-  0.5+    030903 151  1.2+  0.0     030905 379  0.2+  0.1+  

030903 J95  0.6-  0.3-    030903 151 (2.4+  0.1+)   030905 379  0.4+  0.0   

030903 106  0.8-  0.3-    030903 151 (2.2+  0.0 )   030905 379  0.7-  0.0   

030903 106  0.9-  0.4-    030903 196  0.2+  0.7+    030905 379  0.4-  0.2-  

030903 106  0.5-  0.3-    030903 196  0.6+  0.4+    030905 246  1.4-  0.0   

030903 106  0.6-  0.2-    030903 196  0.6+  0.5+    030905 246  1.5-  0.0   

030903 106  0.7-  0.3-    030903 196  0.7+  0.1+    030905 246  0.8-  0.1+  

030903 106  0.5-  0.3-    030903 196  1.0+  0.3+    030905 246  0.2+  0.2+  

030903 441  0.8-  0.4-    030904 704  0.4-  0.3-    030905 246  0.4+  0.3+  

030903 441  0.0   0.1-    030904 704  0.9-  0.1-    030905 246  0.6-  0.0   

030903 441  0.2-  0.4-    030904 704  0.3-  0.0     030905 246  1.4-  0.1+  

030903 441  0.6-  0.1-    030904 704  0.4-  0.4-    030905 170  0.3+  0.2-  

030903 046  0.2-  0.4+    030904 704  0.1-  0.0     030905 170  0.5+  0.1+  

030903 046  0.1-  0.4+    030904 704  0.3+  0.3+    030905 170  0.0   0.2+  

030903 046  0.0   0.3+    030904 704  0.7-  0.0     030905 170  0.1+  0.2+  

030903 046  0.1+  0.2+    030904 704  0.5-  0.1+    030905 170  0.1+  0.5-  

030903 636  0.1+  0.6+    030904 704  0.5+  0.4+    030906 379  0.6+  0.3-  

030903 046  0.0   0.3+    030904 704  0.5-  0.1+    030906 379  0.2+  0.0   

030903 636  0.1+  0.8+    030904 704  0.7-  0.3-    030906 379  0.3+  0.3-  

030903 046  0.0   0.6+    030904 704  0.6-  0.4-    030906 379  0.8+  0.3-  

030903 046  0.3+  0.2+    030904 704  0.7-  0.1-    030906 379  0.2+  0.2-  

030903 636  0.2-  0.3+    030904 704  0.9-  0.4+    030906 379  0.3+  0.3-  

030903 046  0.0   0.2+    030904 704  0.0   0.3-    030906 379  0.1-  0.6-  

030903 636  0.7-  0.4+    030904 379  1.7-  0.1+                            



NAKANO

         **** Don't distribute anyone except personal use only ****

                (C) Copyright 2003 OAA/ComputingSection

write mail from CFAD0::NAKANO on 2003-09-07 05:05:41(JST).



–ß‚è‚Ü‚·B